Location: Newark
(50.0306°N, 2.3272°E)
Time: 04:33:21
(UTC+00:00)

Transit 2A Rocket - Pass Details

Date: 08 December 2019
Orbit: 593 x 910 km, 66.7° (Epoch: 22 January)

Event Time Altitude Azimuth Distance (km) Brightness Sun altitude
Rises 03:00:39 0° 306° (NW) 2,885 - -42.8°
Reaches altitude 10° 03:04:10 10° 276° (W) 2,019 - -42.3°
Maximum altitude 03:05:58 12° 253° (WSW) 1,895 - -42.0°
Drops below altitude 10° 03:07:50 10° 229° (SW) 2,074 - -41.7°
Sets 03:11:34 0° 200° (SSW) 3,055 - -41.1°
